Glasgow, MT

3:33 AM MDT on March 27, 2017 (GMT -0600)
Wokal-Glasgow International

Weather History for KGGW - April, 2013

Change the Weather History Date:

Saturday, April 20, 2013

  Actual Average Record
Temperature  
Mean Temperature 42 °F 47 °F  
Max Temperature 54 °F 60 °F 91 °F (1980)
Min Temperature 29 °F 34 °F 13 °F (1927)
Degree Days  
Heating Degree Days 23 18  
Month to date heating degree days 595 437  
Since 1 July heating degree days 8058 7841  
Cooling Degree Days 0 0  
Month to date cooling degree days 0 0  
Year to date cooling degree days 0 0  
Moisture  
Dew Point 33 °F    
Average Humidity 73    
Maximum Humidity 92    
Minimum Humidity 54    
Precipitation  
Precipitation 0.03 in 0.04 in 0.44 in (1940)
Month to date precipitation 1.12 0.49  
Year to date precipitation 2.78 1.54  
Snow  
Snow T in 0.10 in 3.70 in (1967)
Month to date snowfall 11.7 1.5  
Since 1 July snowfall 62.3 33.2  
Snow Depth 1.00 in    
Sea Level Pressure  
Sea Level Pressure 29.85 in    
Wind  
Wind Speed 11 mph (ESE)    
Max Wind Speed 28 mph    
Max Gust Speed 36 mph    
Visibility 9 miles    
Events Rain , Snow , Thunderstorm    
T = Trace of Precipitation, MM = Missing Value Source: NWS Daily Summary

Daily Weather History Graph

Daily Weather History Graph

Search for Another Location

Airport or City:

Trip Planner

Search our weather history database for the weather conditions in past years. The results will help you decide how hot, cold, wet, or windy it might be!

Date:

Astronomy

Apr. 20, 2013 Rise Set
Actual Time 6:06 AM MDT 8:04 PM MDT
Civil Twilight 5:33 AM MDT 8:38 PM MDT
Nautical Twilight 4:52 AM MDT 9:19 PM MDT
Astronomical Twilight 4:06 AM MDT 10:06 PM MDT
Moon 2:28 PM MDT (4/20) 3:22 AM MDT (4/20)
Length of Visible Light 15h 05m
Length of Day
13h 58m
Waxing Gibbous, 71% of the Moon is Illuminated
Apr 20
Waxing Gibbous
Apr 25
Full
May 2
Last Quarter
May 9
New
May 17
First Quarter

Hourly Weather History & Observations

Time (MDT) Temp. Windchill Dew Point Humidity Pressure Visibility Wind Dir Wind Speed Gust Speed Precip Events Conditions
12:05 AM 32.0 °F 20.1 °F 30.2 °F 93% 29.84 in 1.8 mi ESE 19.6 mph 28.8 mph 0.00 in Snow Light Snow
12:17 AM 32.0 °F 19.8 °F 30.2 °F 93% 29.83 in 2.0 mi ESE 20.7 mph - 0.00 in Snow Light Snow
12:34 AM 30.2 °F 17.4 °F 30.2 °F 100% 29.83 in 3.0 mi ESE 20.7 mph - 0.00 in Snow Light Snow
12:53 AM 30.9 °F 18.7 °F 28.9 °F 92% 29.90 in 5.0 mi ESE 19.6 mph - 0.01 in Snow Light Snow
1:17 AM 30.2 °F 18.1 °F 28.4 °F 93% 29.83 in 6.0 mi ESE 18.4 mph - 0.00 in Snow Light Snow
1:48 AM 30.2 °F 18.9 °F 28.4 °F 93% 29.83 in 8.0 mi ESE 16.1 mph - 0.00 in   Overcast
1:53 AM 30.9 °F 18.7 °F 28.9 °F 92% 29.90 in 6.0 mi ESE 19.6 mph - 0.00 in Snow Light Snow
2:53 AM 30.9 °F 19.1 °F 28.9 °F 92% 29.88 in 9.0 mi ESE 18.4 mph - 0.01 in   Overcast
3:21 AM 30.2 °F 18.5 °F 28.4 °F 93% 29.81 in 10.0 mi ESE 17.3 mph - N/A   Overcast
3:53 AM 30.0 °F 18.3 °F 28.0 °F 92% 29.88 in 10.0 mi ESE 17.3 mph - N/A   Scattered Clouds
4:18 AM 30.2 °F 19.3 °F 28.4 °F 93% 29.81 in 10.0 mi ESE 15.0 mph - N/A   Mostly Cloudy
4:42 AM 30.2 °F 18.1 °F 28.4 °F 93% 29.80 in 10.0 mi ESE 18.4 mph - N/A   Overcast
4:53 AM 30.0 °F 17.9 °F 27.0 °F 88% 29.86 in 10.0 mi ESE 18.4 mph - N/A   Mostly Cloudy
5:53 AM 28.9 °F 18.6 °F 26.1 °F 89% 29.87 in 10.0 mi East 12.7 mph - N/A   Clear
6:53 AM 30.0 °F 20.0 °F 26.1 °F 85% 29.88 in 10.0 mi East 12.7 mph - N/A   Mostly Cloudy
7:53 AM 32.0 °F 23.0 °F 27.0 °F 82% 29.89 in 10.0 mi ESE 11.5 mph - N/A   Overcast
8:22 AM 33.8 °F 25.3 °F 28.4 °F 81% 29.82 in 10.0 mi ESE 11.5 mph - N/A   Overcast
8:53 AM 34.0 °F 25.5 °F 28.9 °F 82% 29.89 in 10.0 mi ESE 11.5 mph - N/A   Overcast
9:53 AM 36.0 °F 29.6 °F 30.9 °F 82% 29.88 in 10.0 mi ESE 8.1 mph - N/A   Overcast
10:03 AM 37.4 °F 31.4 °F 32.0 °F 81% 29.81 in 10.0 mi SE 8.1 mph - N/A   Overcast
10:53 AM 39.0 °F 34.8 °F 34.0 °F 82% 29.89 in 10.0 mi SE 5.8 mph - N/A   Overcast
11:53 AM 41.0 °F 36.4 °F 36.0 °F 82% 29.87 in 10.0 mi SE 6.9 mph - N/A   Overcast
12:17 PM 42.8 °F 40.1 °F 35.6 °F 76% 29.81 in 10.0 mi Variable 4.6 mph - N/A   Overcast
12:43 PM 42.8 °F - 37.4 °F 81% 29.81 in 10.0 mi Calm Calm - N/A   Overcast
12:53 PM 44.1 °F 39.5 °F 37.0 °F 76% 29.86 in 10.0 mi ESE 8.1 mph - N/A   Overcast
1:53 PM 46.9 °F - 39.0 °F 74% 29.85 in 10.0 mi SE 5.8 mph - 0.00 in   Partly Cloudy
2:53 PM 50.0 °F - 39.9 °F 68% 29.82 in 10.0 mi SE 8.1 mph - N/A   Clear
3:53 PM 53.1 °F - 39.0 °F 59% 29.80 in 10.0 mi SE 4.6 mph - N/A   Clear
4:53 PM 54.0 °F - 37.9 °F 55% 29.80 in 10.0 mi Calm Calm - N/A   Clear
5:53 PM 52.0 °F - 39.0 °F 61% 29.80 in 10.0 mi SSE 5.8 mph - N/A   Clear
6:53 PM 48.9 °F - 39.9 °F 71% 29.80 in 10.0 mi South 5.8 mph - N/A   Clear
7:53 PM 46.9 °F - 39.9 °F 77% 29.82 in 8.0 mi SSW 10.4 mph - 0.00 in Rain Light Rain
8:13 PM 46.4 °F 42.4 °F 41.0 °F 81% 29.79 in 7.0 mi WSW 8.1 mph - 0.02 in Rain , Thunderstorm Light Rain
8:53 PM 41.0 °F 34.3 °F 37.0 °F 86% 29.88 in 10.0 mi North 11.5 mph 21.9 mph 0.02 in   Mostly Cloudy
9:53 PM 39.9 °F 35.1 °F 37.0 °F 89% 29.91 in 10.0 mi NW 6.9 mph - N/A   Scattered Clouds
10:12 PM 41.0 °F 34.3 °F 37.4 °F 87% 29.86 in 10.0 mi NW 11.5 mph - N/A   Mostly Cloudy
10:53 PM 39.0 °F 29.6 °F 36.0 °F 89% 29.94 in 10.0 mi NNW 18.4 mph 25.3 mph N/A   Overcast
11:53 PM 37.0 °F 25.9 °F 33.1 °F 86% 29.98 in 10.0 mi NNW 23.0 mph 29.9 mph N/A   Overcast